Location: Newark
(44.6768°N, 22.5302°E)
Time: 00:52:54
(UTC+00:00)

ZACube-1 - Pass Details

Date: 30 June 2022
Orbit: 582 x 661 km, 97.6° (Epoch: 08 August)

Event Time Altitude Azimuth Distance (km) Brightness Sun altitude
Rises 01:53:01 0° 20° (NNE) 2,944 ? -8.3°
Reaches altitude 10° 01:55:21 10° 28° (NNE) 2,042 ? -8.0°
Maximum altitude 01:59:31 38° 97° (E) 994 ? -7.5°
Drops below altitude 10° 02:03:43 10° 166° (SSE) 2,061 ? -6.9°
Sets 02:06:04 0° 174° (S) 2,974 ? -6.6°
